Time,TemperatureF,DewpointF,PressureIn,WindDirection,WindDirectionDegrees,WindSpeedMPH,WindSpeedGustMPH,Humidity,HourlyPrecipIn,Conditions,Clouds,dailyrainin,SoftwareType,DateUTC
2013-05-09 00:11:00,59.7,50.0,29.91,SSE,158,0.0,0.0,70,0.00,,,0.00,meteobridge,2013-05-09 07:11:00,
2013-05-09 00:26:00,59.4,49.6,29.91,SSE,158,0.0,0.0,70,0.00,,,0.00,meteobridge,2013-05-09 07:26:00,
2013-05-09 00:41:00,58.5,50.2,29.91,SSE,158,0.0,0.0,74,0.00,,,0.00,meteobridge,2013-05-09 07:41:00,
2013-05-09 00:56:00,57.4,49.8,29.92,SSE,158,0.0,0.0,76,0.00,,,0.00,meteobridge,2013-05-09 07:56:00,
2013-05-09 01:11:00,56.7,49.5,29.92,SSE,158,0.0,0.0,77,0.00,,,0.00,meteobridge,2013-05-09 08:11:00,
2013-05-09 01:27:00,56.1,49.3,29.92,SSE,158,0.0,0.0,78,0.00,,,0.00,meteobridge,2013-05-09 08:27:00,
2013-05-09 01:43:00,56.3,49.5,29.92,SSE,158,0.0,0.0,78,0.00,,,0.00,meteobridge,2013-05-09 08:43:00,
2013-05-09 01:58:00,56.1,48.9,29.93,SSE,158,0.0,0.0,77,0.00,,,0.00,meteobridge,2013-05-09 08:58:00,
2013-05-09 02:13:00,55.6,49.1,29.93,SSE,158,0.0,0.0,79,0.00,,,0.00,meteobridge,2013-05-09 09:13:00,
2013-05-09 02:28:00,54.9,48.7,29.93,SSE,158,0.0,0.0,80,0.00,,,0.00,meteobridge,2013-05-09 09:28:00,
2013-05-09 02:44:00,54.7,48.6,29.93,SSE,158,0.0,0.0,80,0.00,,,0.00,meteobridge,2013-05-09 09:44:00,
2013-05-09 02:59:00,55.0,48.9,29.93,SSE,158,0.0,0.0,80,0.00,,,0.00,meteobridge,2013-05-09 09:59:00,
2013-05-09 03:14:00,55.0,48.6,29.93,SSE,158,0.0,0.0,79,0.00,,,0.00,meteobridge,2013-05-09 10:14:00,
2013-05-09 03:29:00,55.2,49.1,29.93,SSE,158,0.0,0.0,80,0.00,,,0.00,meteobridge,2013-05-09 10:29:00,
2013-05-09 03:44:00,54.7,49.3,29.93,SSE,158,0.0,0.0,82,0.00,,,0.00,meteobridge,2013-05-09 10:44:00,
2013-05-09 03:59:00,54.7,48.9,29.93,NNW,328,0.0,0.0,81,0.00,,,0.00,meteobridge,2013-05-09 10:59:00,
2013-05-09 04:15:00,54.9,49.1,29.94,NNE,25,0.0,0.0,81,0.00,,,0.00,meteobridge,2013-05-09 11:15:00,
2013-05-09 04:30:00,55.2,49.5,29.94,NE,49,0.9,2.0,81,0.00,,,0.00,meteobridge,2013-05-09 11:30:00,
2013-05-09 04:45:00,55.6,49.5,29.95,NE,46,2.0,2.9,80,0.00,,,0.00,meteobridge,2013-05-09 11:45:00,
2013-05-09 05:00:00,55.8,49.6,29.95,North,11,2.0,2.0,80,0.00,,,0.00,meteobridge,2013-05-09 12:00:00,
2013-05-09 05:15:00,55.4,49.3,29.95,ENE,66,0.0,0.9,80,0.00,,,0.00,meteobridge,2013-05-09 12:15:00,
2013-05-09 05:30:00,53.4,48.0,29.96,ENE,66,0.0,0.0,82,0.00,,,0.00,meteobridge,2013-05-09 12:30:00,
2013-05-09 05:45:00,52.5,47.8,29.96,ENE,66,0.0,0.0,84,0.00,,,0.00,meteobridge,2013-05-09 12:45:00,
2013-05-09 06:00:00,52.2,48.0,29.97,ENE,66,0.0,0.0,86,0.00,,,0.00,meteobridge,2013-05-09 13:00:00,
2013-05-09 06:15:00,52.7,48.6,29.98,ENE,66,0.0,0.0,86,0.00,,,0.00,meteobridge,2013-05-09 13:15:00,
2013-05-09 06:31:00,53.4,49.1,29.98,ENE,66,0.0,0.0,85,0.00,,,0.00,meteobridge,2013-05-09 13:31:00,
2013-05-09 06:46:00,54.3,49.6,29.99,ENE,66,0.0,0.0,84,0.00,,,0.00,meteobridge,2013-05-09 13:46:00,
2013-05-09 07:01:00,57.4,50.9,29.99,ENE,66,0.0,0.0,79,0.00,,,0.00,meteobridge,2013-05-09 14:01:00,
2013-05-09 07:16:00,59.2,51.6,30.00,ENE,66,0.0,0.0,76,0.00,,,0.00,meteobridge,2013-05-09 14:16:00,
2013-05-09 07:31:00,60.1,50.2,30.00,NE,42,0.0,0.9,70,0.00,,,0.00,meteobridge,2013-05-09 14:31:00,
2013-05-09 07:46:00,60.3,51.3,30.01,North,11,0.0,0.0,72,0.00,,,0.00,meteobridge,2013-05-09 14:46:00,
2013-05-09 08:01:00,61.0,50.7,30.01,NE,37,0.0,0.9,69,0.00,,,0.00,meteobridge,2013-05-09 15:01:00,
2013-05-09 08:16:00,62.2,51.1,30.01,NE,44,0.9,0.9,67,0.00,,,0.00,meteobridge,2013-05-09 15:16:00,
2013-05-09 08:31:00,63.9,51.1,30.01,NE,44,0.0,0.0,63,0.00,,,0.00,meteobridge,2013-05-09 15:31:00,
2013-05-09 08:47:00,66.7,51.4,30.01,SSE,147,0.0,0.0,58,0.00,,,0.00,meteobridge,2013-05-09 15:47:00,
2013-05-09 09:02:00,68.5,50.7,30.01,SSW,212,0.0,0.9,53,0.00,,,0.00,meteobridge,2013-05-09 16:02:00,
2013-05-09 09:17:00,69.1,51.3,30.01,South,184,0.9,0.9,53,0.00,,,0.00,meteobridge,2013-05-09 16:17:00,
2013-05-09 09:32:00,68.9,50.5,30.01,SSE,156,0.0,0.0,52,0.00,,,0.00,meteobridge,2013-05-09 16:32:00,
2013-05-09 09:47:00,70.0,50.5,30.01,SSE,148,0.9,2.0,50,0.00,,,0.00,meteobridge,2013-05-09 16:47:00,
2013-05-09 10:02:00,71.1,50.4,30.01,SSE,147,0.0,0.0,48,0.00,,,0.00,meteobridge,2013-05-09 17:02:00,
2013-05-09 10:17:00,73.0,50.4,30.00,SSE,155,0.0,0.9,45,0.00,,,0.00,meteobridge,2013-05-09 17:17:00,
2013-05-09 10:32:00,73.4,50.2,30.00,SSE,150,0.0,2.0,44,0.00,,,0.00,meteobridge,2013-05-09 17:32:00,
2013-05-09 10:48:00,74.1,50.9,30.00,SSE,155,0.0,0.0,44,0.00,,,0.00,meteobridge,2013-05-09 17:48:00,
2013-05-09 11:03:00,75.4,50.7,30.00,NNE,18,0.0,2.0,42,0.00,,,0.00,meteobridge,2013-05-09 18:03:00,
2013-05-09 11:18:00,77.9,54.9,29.99,ESE,123,0.0,0.0,45,0.00,,,0.00,meteobridge,2013-05-09 18:18:00,
2013-05-09 11:33:00,78.1,51.8,29.99,ESE,115,0.0,0.9,40,0.00,,,0.00,meteobridge,2013-05-09 18:33:00,
2013-05-09 11:48:00,79.0,51.3,29.99,NE,39,0.9,2.0,38,0.00,,,0.00,meteobridge,2013-05-09 18:48:00,
2013-05-09 12:03:00,80.2,53.1,29.99,SE,127,0.9,0.9,39,0.00,,,0.00,meteobridge,2013-05-09 19:03:00,
2013-05-09 12:18:00,79.2,50.7,29.98,WNW,286,0.0,0.9,37,0.00,,,0.00,meteobridge,2013-05-09 19:18:00,
2013-05-09 12:33:00,79.7,50.4,29.98,NNW,335,0.9,0.9,36,0.00,,,0.00,meteobridge,2013-05-09 19:33:00,
2013-05-09 12:48:00,80.2,49.3,29.98,NNE,20,0.0,2.0,34,0.00,,,0.00,meteobridge,2013-05-09 19:48:00,
2013-05-09 13:03:00,81.1,50.2,29.98,WNW,285,0.0,0.9,34,0.00,,,0.00,meteobridge,2013-05-09 20:03:00,
2013-05-09 13:19:00,81.3,47.8,29.98,SE,141,0.0,0.0,31,0.00,,,0.00,meteobridge,2013-05-09 20:19:00,
2013-05-09 13:34:00,81.3,46.9,29.98,WNW,286,0.9,2.0,30,0.00,,,0.00,meteobridge,2013-05-09 20:34:00,
2013-05-09 13:49:00,81.3,44.1,29.97,WNW,290,0.0,0.9,27,0.00,,,0.00,meteobridge,2013-05-09 20:49:00,
2013-05-09 14:04:00,81.9,46.4,29.97,WNW,293,0.0,0.9,29,0.00,,,0.00,meteobridge,2013-05-09 21:04:00,
2013-05-09 14:19:00,81.9,45.5,29.97,SW,214,0.0,0.9,28,0.00,,,0.00,meteobridge,2013-05-09 21:19:00,
2013-05-09 14:34:00,82.8,38.8,29.96,NW,304,0.0,2.0,21,0.00,,,0.00,meteobridge,2013-05-09 21:34:00,
2013-05-09 14:50:00,83.1,41.5,29.96,East,94,0.0,0.0,23,0.00,,,0.00,meteobridge,2013-05-09 21:50:00,
2013-05-09 15:05:00,83.1,36.7,29.95,NNE,25,0.0,2.9,19,0.00,,,0.00,meteobridge,2013-05-09 22:05:00,
2013-05-09 15:20:00,83.3,35.4,29.95,WNW,290,0.9,2.0,18,0.00,,,0.00,meteobridge,2013-05-09 22:20:00,
2013-05-09 15:35:00,83.1,36.7,29.95,West,271,0.9,2.0,19,0.00,,,0.00,meteobridge,2013-05-09 22:35:00,
2013-05-09 15:50:00,83.8,35.8,29.94,WNW,285,0.9,2.0,18,0.00,,,0.00,meteobridge,2013-05-09 22:50:00,
2013-05-09 16:05:00,83.8,34.3,29.93,NNW,332,0.0,2.0,17,0.00,,,0.00,meteobridge,2013-05-09 23:05:00,
2013-05-09 16:20:00,83.8,29.5,29.93,NE,36,2.9,2.9,14,0.00,,,0.00,meteobridge,2013-05-09 23:20:00,
2013-05-09 16:35:00,84.0,34.5,29.93,East,84,0.0,2.0,17,0.00,,,0.00,meteobridge,2013-05-09 23:35:00,
2013-05-09 16:50:00,84.0,34.5,29.93,West,277,0.0,2.9,17,0.00,,,0.00,meteobridge,2013-05-09 23:50:00,
2013-05-09 17:05:00,83.7,37.0,29.93,WNW,300,0.9,2.0,19,0.00,,,0.00,meteobridge,2013-05-10 00:05:00,
2013-05-09 17:20:00,83.5,35.6,29.92,West,274,0.0,0.9,18,0.00,,,0.00,meteobridge,2013-05-10 00:20:00,
2013-05-09 17:35:00,83.1,36.7,29.92,SSW,203,0.0,2.0,19,0.00,,,0.00,meteobridge,2013-05-10 00:35:00,
2013-05-09 17:51:00,82.9,37.8,29.92,WNW,289,0.0,0.0,20,0.00,,,0.00,meteobridge,2013-05-10 00:51:00,
2013-05-09 18:06:00,82.8,37.6,29.92,WNW,300,0.9,0.9,20,0.00,,,0.00,meteobridge,2013-05-10 01:06:00,
2013-05-09 18:21:00,82.2,37.2,29.91,West,267,0.0,0.9,20,0.00,,,0.00,meteobridge,2013-05-10 01:21:00,
2013-05-09 18:36:00,82.6,36.1,29.91,WNW,290,0.0,0.0,19,0.00,,,0.00,meteobridge,2013-05-10 01:36:00,
2013-05-09 18:51:00,82.0,38.3,29.91,SSE,158,0.0,0.9,21,0.00,,,0.00,meteobridge,2013-05-10 01:51:00,
2013-05-09 19:07:00,81.0,39.7,29.91,SSE,158,0.0,0.0,23,0.00,,,0.00,meteobridge,2013-05-10 02:07:00,
2013-05-09 19:22:00,80.2,40.1,29.91,SSE,158,0.0,0.0,24,0.00,,,0.00,meteobridge,2013-05-10 02:22:00,
2013-05-09 19:37:00,78.3,41.5,29.91,SSE,158,0.0,0.0,27,0.00,,,0.00,meteobridge,2013-05-10 02:37:00,
2013-05-09 19:52:00,75.6,42.8,29.92,SSE,159,0.0,0.0,31,0.00,,,0.00,meteobridge,2013-05-10 02:52:00,
2013-05-09 20:07:00,72.7,44.2,29.92,SSE,159,0.0,0.0,36,0.00,,,0.00,meteobridge,2013-05-10 03:07:00,
2013-05-09 20:22:00,70.9,43.3,29.92,SSE,158,0.0,0.0,37,0.00,,,0.00,meteobridge,2013-05-10 03:22:00,
2013-05-09 20:38:00,69.3,43.9,29.93,SSE,158,0.0,0.0,40,0.00,,,0.00,meteobridge,2013-05-10 03:38:00,
2013-05-09 20:53:00,67.1,43.2,29.93,SSE,158,0.0,0.0,42,0.00,,,0.00,meteobridge,2013-05-10 03:53:00,
2013-05-09 21:08:00,66.4,43.9,29.93,SSE,153,0.0,0.0,44,0.00,,,0.00,meteobridge,2013-05-10 04:08:00,
2013-05-09 21:23:00,66.7,43.5,29.94,SSE,153,0.0,0.0,43,0.00,,,0.00,meteobridge,2013-05-10 04:23:00,
2013-05-09 21:39:00,66.4,43.9,29.95,SSE,153,0.0,0.0,44,0.00,,,0.00,meteobridge,2013-05-10 04:39:00,
2013-05-09 21:54:00,65.8,43.9,29.95,SE,146,0.0,0.0,45,0.00,,,0.00,meteobridge,2013-05-10 04:54:00,
2013-05-09 22:09:00,64.0,43.9,29.95,SE,146,0.0,0.0,48,0.00,,,0.00,meteobridge,2013-05-10 05:09:00,
2013-05-09 22:24:00,63.0,43.5,29.96,SE,146,0.0,0.0,49,0.00,,,0.00,meteobridge,2013-05-10 05:24:00,
2013-05-09 22:39:00,61.9,43.0,29.96,SE,146,0.0,0.0,50,0.00,,,0.00,meteobridge,2013-05-10 05:39:00,
2013-05-09 22:54:00,61.3,43.5,29.96,SE,146,0.0,0.0,52,0.00,,,0.00,meteobridge,2013-05-10 05:54:00,
2013-05-09 23:09:00,61.0,44.2,29.96,SE,146,0.0,0.0,54,0.00,,,0.00,meteobridge,2013-05-10 06:09:00,
2013-05-09 23:24:00,61.2,44.8,29.97,SE,146,0.0,0.0,55,0.00,,,0.00,meteobridge,2013-05-10 06:24:00,
2013-05-09 23:40:00,60.4,44.6,29.97,SE,146,0.0,0.0,56,0.00,,,0.00,meteobridge,2013-05-10 06:40:00,
2013-05-09 23:55:00,59.5,45.7,29.98,SE,146,0.0,0.0,60,0.00,,,0.00,meteobridge,2013-05-10 06:55:00,